Location: Borojevi?i
(45.0486°N, 16.2297°E)
Time: 08:22:04
(UTC+00:00)

Cosmos 1437 Rocket - Pass Details

Date: 08 August 2020
Orbit: 506 x 563 km, 81.2° (Epoch: 26 September)

Event Time Altitude Azimuth Distance (km) Brightness Sun altitude
Rises 20:28:15 0° 356° (N) 2,642 7.2 -20.0°
Reaches altitude 10° 20:30:31 10° 4° (N) 1,743 6.0 -20.3°
Enters shadow 20:33:56 38° 68° (ENE) 788 3.4 -20.6°
